User: anonymous   Login
Location: Unspecified
(0.0000°N, 0.0000°E)
Time: 22:24:47
(UTC+00:00)
Language:

LEMUR 2 SOKOLSKY - Orbit

View from above orbital plane
View from above orbital plane
View from above satellite
View from above satellite

Ground track
Ground track

The orbit data is extracted from the following two-line orbital elements,

1 41872U 16062D   23083.35489606  .01438986  00000-0  49792-2 0  9996
2 41872  51.6533  59.0225 0008246 101.0656 259.1276 15.86369976353293
Epoch (UTC): 24 March 2023 08:31:03
Eccentricity: 0.0008246
inclination: 51.6533°
perigee height: 307 km
apogee height: 318 km
right ascension of ascending node: 59.0225°
argument of perigee: 101.0656°
revolutions per day: 15.86369976
mean anomaly at epoch: 259.1276°
orbit number at epoch: 35329

The dashed part of the orbit path shows where the satellite is in the earth's shadow,  

DLR